Showing default

DMSP 5D-2 F13 (USA 109), 23533

Orbit data source: Space-Track

DMSP 5D-2 F13 (USA 109), 23533 is a payload satellite owned by USAF SMC (US) in SSO that was launched on Fri, 24 Mar 1995 UTC via an ATLAS E launch vehicle from the Air Force Western Test Range (AFWTR). Payload-class satellites include a variety of spacecraft equipped with specific instruments for various scientific and technological missions. These include communications satellites like Starlink; space stations such as the ISS; scientific satellites like the Hubble; Earth observation satellites from companies like Planet Labs, Umbra, and HawkEye 360; GPS; miniature CubeSats for education and research; and military/defense satellites.

Loading next visibility...
Identifier
23533, 1995-015A
Orbit
SSO
Country
Flag of USUS
Related business
Manufacturer
LMT/EW
Mission
Non-operational Defense Weather
Bus & Motor
BLOCK 5D, STAR 37S
Mass
1,456 kg wet, 749 kg dry
Launch date (UTC)
1995-03-24 (30 years ago)
Launch vehicle
ATLAS E
Launch site
Air Force Western Test Range (AFWTR)
Object type
Payload
Rocket body
Debris
Shape & HBR
Cyl + 1 Pan, 2.5 m
Radar Cross Section
4.290 m², Large (>1 m²)

Expand to show TLE details & history
Last TLE update: 1 day ago

TLE from 1 day ago
0 DMSP 5D-2 F13 (USA 109)
1 23533U 95015A   25242.03643218  .00000134  00000-0  89041-4 0  9992
2 23533  98.8149 253.7193 0005655 265.9800 153.2312 14.16922355571961
Epoch: 2025-08-30T00:52Z
TLE epoch observation values (Epoch: 2025-08-30T00:52:27.74Z)
Latitude
58.21988°
Longitude
-112.29007°
Altitude
849.207 km
Speed
7.432 km/s
True Right ascension
15h 57m 12s
True Declination
58° 04' 04"
Sunlit
Object was in daylight at epoch
Visualization orbit readout
Latitude
Unknown
Longitude
Unknown
Altitude
Unknown
Speed
Unknown
Apparent Right ascension
Unknown
Apparent Declination
Unknown
Sunlit
N/A
Visualization observer readout
Local Sidereal Time
16:43:32
Azimuth
Unknown
Elevation
Unknown
Doppler factor
Unknown
Orbital elements
Apogee altitude
837.026 km
Perigee altitude
828.87 km
Semi-major axis
7,211.085 km
Eccentricity
0.00057
Inclination
98.8149°
RAAN
253.7193°
Arg. of periapsis
265.98°
True anomaly
153.26037°
Mean anomaly
153.2312°
Eccentric anomaly
153.24579°
Mean motion
3.5444 °/min
Orbital period
101.57 mins
BSTAR
0.000089041
Loading maneuver chart data...
Computing Atmospheric mass density...

Documentation

Showing up to 5 results
|